Home > Weather > Haywards Heath > Past weeks

Flag for United Kingdom Weather for the Past 2 Weeks in Haywards Heath, England, United Kingdom

Now
39 °F

Passing clouds.


Feels Like: 37 °F
Forecast: N/A
Wind: 3 mph from South

Location: London / Gatwick Airport

Current Time: Feb 11, 2016 at 7:52:27 PM

Latest Report: Feb 11, 2016 at 7:20 PM


Visibility: N/A

Pressure: 29.62 "Hg

Humidity: 81%

Dew point: 34 °F

Location of Haywards HeathLocation

Historic Weather in Haywards Heath — Graph

°F

Haywards Heath Temperature Yesterday

Maximum temperature yesterday: 46 °F (at 1:50 PM)
Minimum temperature yesterday: 30 °F (at 10:50 PM)
Average temperature yesterday: 40 °F

High & Low Weather Summary for the Past Weeks

 TemperatureHumidityPressure
High55 °F (Jan 31, 4:20 PM)100% (Jan 28, 8:50 AM)30.39 "Hg (Jan 28, 8:50 AM)
Low27 °F (Feb 11, 3:20 AM)49% (Jan 30, 1:50 PM)29.09 "Hg (Feb 8, 2:50 AM)
Average45 °F81%29.79 "Hg
* Reported Jan 27 6:20 PM — Feb 11 6:50 PM, Haywards Heath, Weather by CustomWeather, © 2016

Note: Actual official high and low records may vary slightly from our data, if they occured in-between our weather recording intervals... More about our weather records

Advertising

Haywards Heath Weather History for the Previous 24 Hours

 ConditionsComfort  
Time TempWeatherWind HumidityBarometerVisibility
6:50 PM
Thu, Feb 11
41 °FPassing clouds.5 mph76%29.62 "HgN/A
5:50 PM41 °FPassing clouds.3 mph76%29.62 "HgN/A
5:20 PM43 °FPassing clouds.5 mph66%29.62 "HgN/A
4:50 PM41 °FBroken clouds.No wind70%29.62 "HgN/A
4:20 PM43 °FPassing clouds.2 mph66%29.62 "HgN/A
3:50 PM45 °FBroken clouds.3 mph61%29.62 "HgN/A
3:20 PM45 °FPassing clouds.5 mph61%29.62 "HgN/A
2:50 PM45 °FScattered clouds.6 mph66%29.62 "HgN/A
2:20 PM46 °FScattered clouds.6 mph62%29.62 "HgN/A
1:50 PM46 °FPassing clouds.6 mph57%29.62 "HgN/A
1:20 PM46 °FPassing clouds.6 mph57%29.65 "HgN/A
12:50 PM46 °FPassing clouds.7 mph62%29.65 "HgN/A
12:20 PM45 °FPassing clouds.6 mph71%29.65 "HgN/A
11:50 AM43 °FPassing clouds.3 mph81%29.65 "HgN/A
11:20 AM39 °FPassing clouds.2 mph87%29.68 "HgN/A
10:50 AM36 °FSunny.No wind100%29.68 "Hg10 mi
10:20 AM36 °FSunny.2 mph93%29.68 "Hg10 mi
9:50 AM32 °FClear.No wind100%29.68 "Hg6 mi
9:20 AM30 °FPassing clouds.5 mph100%29.68 "Hg6 mi
8:50 AM28 °FFog.2 mph100%29.68 "HgN/A
8:20 AM27 °FFog.No wind100%29.68 "HgN/A
7:50 AM27 °FLight fog.2 mph100%29.65 "HgN/A
7:20 AM27 °FClear.No wind93%29.65 "Hg5 mi
6:50 AM27 °FLight fog.No wind93%29.65 "Hg4 mi
6:20 AM27 °FLight fog.No wind100%29.65 "Hg4 mi
5:50 AM27 °FIce fog.No wind100%29.65 "Hg3 mi
5:20 AM27 °FIce fog.No wind100%29.65 "Hg2 mi
4:50 AM27 °FIce fog.No wind100%29.65 "Hg3 mi
4:20 AM27 °FIce fog.2 mph100%29.65 "Hg2 mi
3:50 AM27 °FIce fog.No wind100%29.65 "Hg3 mi
3:20 AM27 °FClear.No wind100%29.65 "Hg5 mi
2:50 AM28 °FClear.No wind93%29.65 "Hg6 mi
2:20 AM28 °FClear.No wind93%29.65 "Hg10 mi
1:20 AM28 °FClear.No wind100%29.65 "Hg10 mi
12:50 AM28 °FClear.No wind100%29.65 "Hg10 mi
12:20 AM30 °FClear.2 mph93%29.65 "Hg10 mi
11:50 PM
Wed, Feb 10
30 °FPassing clouds.2 mph93%29.65 "Hg4 mi
11:20 PM30 °FPassing clouds.No wind93%29.65 "Hg5 mi
10:50 PM30 °FClear.No wind93%29.65 "Hg10 mi
10:20 PM32 °FClear.No wind93%29.62 "Hg5 mi
9:50 PM32 °FClear.3 mph93%29.62 "Hg10 mi
9:20 PM32 °FClear.No wind93%29.62 "Hg10 mi
8:50 PM34 °FClear.2 mph93%29.62 "Hg10 mi
8:20 PM34 °FClear.3 mph93%29.59 "Hg10 mi
7:50 PM34 °FClear.3 mph93%29.59 "Hg10 mi
7:20 PM37 °FClear.3 mph87%29.59 "Hg10 mi
Weather by CustomWeather, © 2016

See weather overviewHow to use our weather pages